Location: Puketoi
(40.5833°S, 176.0167°E)
Time: 00:27:45
(UTC+00:00)

COSMOS 2455 - Pass Details

Date: 03 October 2023
Orbit: 902 x 907 km, 67.1° (Epoch: 03 December)

Event Time Altitude Azimuth Distance (km) Brightness Sun altitude
Rises 16:38:16 0° 198° (SSW) 3,562 6.0 -13.5°
Reaches altitude 10° 16:42:28 10° 171° (S) 2,614 5.6 -12.8°
Maximum altitude 16:45:10 13° 144° (SE) 2,396 5.8 -12.3°
Drops below altitude 10° 16:47:51 10° 117° (ESE) 2,605 6.7 -11.8°
Sets 16:52:00 0° 90° (E) 3,538 7.6 -11.0°
